This demonstration page uses our WeatherBlox Daily Observations layout. Learn more.

40.92945, -100.16068

Hourly Observations for May 1, 2018

Temp ( °F °C ) Dew Point ( °F °C ) Humidity (%) Winds ( mph kmh ) Pressure ( in mb ) Visibility ( mi km ) Precip ( " mm )
12:15 am 00:15 Mostly Cloudy 69 20.7 56 13.1 62 62 WSW 6 9 29.56 1001 10 16.0934 0 0
12:35 am 00:35 Cloudy 68 19.9 55 13 65 65 Calm 29.59 1002 10 16.0934 0 0
12:55 am 00:55 Cloudy 69 20.6 56 13.3 63 63 Calm 29.59 1002 10 16.0934 0 0
1:15 am 01:15 Cloudy 67 19.5 54 12.2 63 63 N 7 11 29.62 1003 10 16.0934 0 0
1:35 am 01:35 Cloudy 64 17.5 52 11 66 66 NNE 12 19 29.62 1003 10 16.0934 0 0
1:55 am 01:55 Cloudy 63 17.1 51 10.5 65 65 NNE 21 33 29.62 1003 10 16.0934 0 0
2:15 am 02:15 Cloudy 62 16.7 50 10.1 65 65 NNE 20 31 29.65 1004 10 16.0934 0 0
2:35 am 02:35 Cloudy 62 16.5 50 10 66 66 NNE 16 26 29.65 1004 10 16.0934 0 0
2:55 am 02:55 Cloudy 61 16.2 50 10 67 67 N 21 33 29.65 1004 10 16.0934 0 0
3:15 am 03:15 Cloudy 59 15 49 9.5 70 70 N 17 28 29.65 1004 10 16.0934 0 0
3:35 am 03:35 Cloudy 57 13.9 47 8.6 71 71 NNE 20 31 29.65 1004 10 16.0934 0 0
3:55 am 03:55 Cloudy 56 13.2 46 8 71 71 N 21 33 29.71 1006 10 16.0934 0 0
4:15 am 04:15 Cloudy 55 12.7 46 7.5 71 71 NNE 18 30 29.68 1005 10 16.0934 0 0
4:35 am 04:35 Cloudy 54 12.2 45 7.3 72 72 N 20 31 29.71 1006 10 16.0934 0 0
4:55 am 04:55 Cloudy 54 12 45 7.1 72 72 NNE 20 31 29.71 1006 10 16.0934 0 0
5:15 am 05:15 Cloudy 53 11.9 45 7.2 73 73 N 16 26 29.71 1006 10 16.0934 0 0
5:35 am 05:35 Cloudy 53 11.5 46 7.5 77 77 N 14 22 29.71 1006 10 16.0934 0 0
5:55 am 05:55 Cloudy 52 11.1 46 7.6 79 79 NNE 15 24 29.71 1006 10 16.0934 0 0
6:15 am 06:15 Cloudy 51 10.7 45 7.4 80 80 NNE 14 22 29.71 1006 10 16.0934 0 0
6:35 am 06:35 Partly Cloudy 50 10.1 45 7.2 82 82 NNE 13 20 29.74 1007 10 16.0934 0 0
6:55 am 06:55 Sunny 51 10.3 45 7.3 82 82 NE 16 26 29.74 1007 10 16.0934 0 0
7:15 am 07:15 Sunny 51 10.7 45 7.3 80 80 NE 17 28 29.71 1006 10 16.0934 0 0
7:35 am 07:35 Sunny 52 11 45 7.2 78 78 NE 15 24 29.71 1006 10 16.0934 0 0
7:55 am 07:55 Sunny 52 11.2 45 7.3 77 77 NE 15 24 29.71 1006 10 16.0934 0 0
8:15 am 08:15 Sunny 53 11.4 46 7.5 77 77 ENE 15 24 29.71 1006 10 16.0934 0 0
8:35 am 08:35 Mostly Cloudy 53 11.9 46 7.8 76 76 ENE 9 15 29.71 1006 10 16.0934 0 0
8:55 am 08:55 Cloudy 55 12.5 47 8.1 75 75 ENE 13 20 29.71 1006 10 16.0934 0 0
9:15 am 09:15 Cloudy 56 13.1 47 8.5 74 74 ENE 12 19 29.71 1006 10 16.0934 0 0
9:35 am 09:35 Cloudy 56 13.6 48 8.9 73 73 ENE 14 22 29.71 1006 10 16.0934 0 0
9:55 am 09:55 Cloudy 57 14 49 9.2 73 73 ENE 13 20 29.68 1005 10 16.0934 0 0
10:15 am 10:15 Cloudy 58 14.5 49 9.5 72 72 NE 14 22 29.68 1005 10 16.0934 0 0
10:35 am 10:35 Cloudy 58 14.7 49 9.6 72 72 ENE 13 20 29.68 1005 10 16.0934 0 0
10:55 am 10:55 Cloudy 59 15.1 50 9.9 71 71 NE 13 20 29.68 1005 10 16.0934 0 0
11:15 am 11:15 Cloudy 60 15.3 51 10.3 72 72 ENE 13 20 29.68 1005 10 16.0934 0 0
11:35 am 11:35 Cloudy 60 15.5 51 10.5 72 72 ENE 12 19 29.68 1005 10 16.0934 0 0
11:55 am 11:55 Cloudy 60 15.5 51 10.3 71 71 NE 12 19 29.68 1005 10 16.0934 0 0
12:15 pm 12:15 Cloudy 60 15.8 51 10.6 71 71 NE 12 19 29.68 1005 10 16.0934 0 0
12:35 pm 12:35 Cloudy 60 15.6 51 10.6 72 72 NE 12 19 29.68 1005 10 16.0934 0 0
12:55 pm 12:55 Cloudy 60 15.7 51 10.5 71 71 NE 14 22 29.68 1005 10 16.0934 0 0
1:15 pm 13:15 Cloudy 60 15.3 51 10.3 72 72 NNE 15 24 29.68 1005 10 16.0934 0 0
1:35 pm 13:35 Cloudy 60 15.4 51 10.3 72 72 NNE 15 24 29.68 1005 10 16.0934 0 0
1:55 pm 13:55 Cloudy 61 16.2 52 10.9 71 71 NNE 16 26 29.68 1005 10 16.0934 0 0
2:15 pm 14:15 Cloudy 62 16.5 52 10.9 70 70 N 16 26 29.68 1005 10 16.0934 0 0
2:35 pm 14:35 Cloudy 60 15.7 50 10 69 69 N 17 28 29.71 1006 10 16.0934 0 0
2:55 pm 14:55 Cloudy 58 14.5 49 9.5 72 72 N 17 28 29.71 1006 10 16.0934 0 0
3:15 pm 15:15 Cloudy 58 14.5 49 9.5 72 72 N 18 30 29.71 1006 10 16.0934 0 0
3:35 pm 15:35 Mostly Cloudy 58 14.4 50 9.8 74 74 N 18 30 29.68 1005 10 16.0934 0 0
3:55 pm 15:55 Mostly Cloudy with Nearby Thunderstorms 58 14.7 50 9.9 73 73 N 15 24 29.68 1005 10 16.0934 0 0
4:15 pm 16:15 Mostly Cloudy 59 14.8 50 10 73 73 N 17 28 29.68 1005 10 16.0934 0 0
4:35 pm 16:35 Cloudy 58 14.7 49 9.7 72 72 N 15 24 29.65 1004 10 16.0934 0 0
4:55 pm 16:55 Cloudy 60 15.3 50 10 71 71 N 15 24 29.65 1004 10 16.0934 0 0
5:15 pm 17:15 Cloudy 60 15.4 50 10 70 70 N 14 22 29.65 1004 10 16.0934 0 0
5:35 pm 17:35 Cloudy 60 15.6 50 10.2 70 70 N 14 22 29.65 1004 10 16.0934 0 0
5:55 pm 17:55 Partly Cloudy 60 15.5 50 10 70 70 N 15 24 29.65 1004 10 16.0934 0 0
6:15 pm 18:15 Sunny 61 15.9 51 10.4 70 70 N 12 19 29.65 1004 10 16.0934 0 0
6:35 pm 18:35 Sunny 60 15.7 51 10.4 71 71 NNE 10 17 29.68 1005 10 16.0934 0 0
6:55 pm 18:55 Partly Cloudy 81 27.1 51 10.5 35 35 S 30 48 29.41 996 10 16.0934 0 0
7:15 pm 19:15 Cloudy 59 14.8 50 10 73 73 N 15 24 29.68 1005 10 16.0934 0 0
7:35 pm 19:35 Cloudy 58 14.7 50 10 74 74 N 10 17 29.71 1006 10 16.0934 0 0
7:55 pm 19:55 Cloudy 58 14.7 50 10 74 74 N 12 19 29.71 1006 10 16.0934 0 0
8:15 pm 20:15 Mostly Cloudy 58 14.3 49 9.7 74 74 NNE 12 19 29.71 1006 10 16.0934 0 0
8:35 pm 20:35 Partly Cloudy 56 13.5 49 9.5 77 77 NNE 10 17 29.74 1007 10 16.0934 0 0
8:55 pm 20:55 Clear 55 12.7 49 9.3 80 80 N 8 13 29.74 1007 10 16.0934 0 0
9:15 pm 21:15 Clear 54 12.2 49 9.2 82 82 N 9 15 29.77 1008 10 16.0934 0 0
9:35 pm 21:35 Clear 54 12.1 49 9.3 83 83 NNW 12 19 29.77 1008 10 16.0934 0 0
9:55 pm 21:55 Partly Cloudy 54 12.2 49 9.5 84 84 N 10 17 29.8 1009 10 16.0934 0 0
10:15 pm 22:15 Clear 53 11.9 49 9.3 84 84 NNW 9 15 29.8 1009 10 16.0934 0 0
10:35 pm 22:35 Clear 53 11.5 49 9.2 86 86 N 12 19 29.8 1009 10 16.0934 0 0
10:55 pm 22:55 Clear 53 11.5 48 8.8 84 84 NNE 12 19 29.8 1009 10 16.0934 0 0
11:15 pm 23:15 Clear 53 11.5 47 8.5 82 82 NNE 12 19 29.8 1009 10 16.0934 0 0
11:35 pm 23:35 Clear 53 11.5 47 8.5 82 82 NNE 12 19 29.8 1009 10 16.0934 0 0
11:55 pm 23:55 Clear 53 11.5 47 8.5 82 82 NNE 12 19 29.8 1009 10 16.0934 0 0

Powered by AerisWeather